sat.trackr.live / text

‹ back to catalog

STARLINK-30536

NORAD 57993 · 2023-153C

PAYLOAD ACTIVE UNKNOWN

§ Identity

Operator
Country
US
Launch date
2023-10-05
Launch site
AFETR
Launch vehicle
Mass (kg)
RCS (m²)

Purposes: comms

External: N2YO · Heavens-Above · Gunter

§ Orbital elements

Epoch: 2026-05-24T23:24:12.286944Z

Period
94.27 min
Inclination
43.0061°
Eccentricity
0.0001529
Mean motion
15.27578569 rev/d
Perigee alt
482.0 km
Apogee alt
484.1 km
Semi-major
6,861.2 km
B*
3.7278e-7
RAAN
356.2039°
Arg perigee
269.2081°
Mean anomaly
90.8596°
Rev number
14,656

§ Raw data

STARLINK-305361 57993U 23153C   26144.97514221 -.00000252  00000+0  37278-6 0  99972 57993  43.0061 356.2039 0001529 269.2081  90.8596 15.27578569146566

JSON: /api/v1/satellites/57993 · /tle

For live sub-satellite position, see the globe view (requires WebGL).

§ Visibility from observer

Set your observer location to see the next 7 days of passes ≥ 10°. The values pass through the URL so the page stays shareable.

No JS? Fill the form by hand. The geolocation button needs JavaScript.